Tracking 19246 objects as of 21-Sep-2018
HD Live streaming from Space Station
objects crossing your sky now

FENGYUN 1C DEB

Track FENGYUN 1C DEB now!
10-day predictions


NORAD ID: 31179
Int'l Code: 1999-025BJH
Perigee: 784.3 km
Apogee: 1,118.3 km
Inclination: 99.3 °
Period: 103.9 minutes
Semi major axis: 7322 km
RCS: 0.0075 m2 (small)
Launch date: May 10, 1999
Source: People's Republic of China (PRC)
Launch site: Taiyaun Space Center, China (TSC)

Note: This is SATELLITE DEBRIS
aabbcc
Your satellite tracking list
Your tracking list is empty




NASA's NSSDC Master Catalog

Two Line Element Set (TLE):
1 31179U 99025BJH 18263.29328593  .00000309  00000-0  25376-3 0  9995
2 31179  99.2894 298.7492 0228061 278.6293  78.9087 13.85584851580551
Source of the keplerian elements: AFSPC